Date String (YYYY-MM-DD hh:mm:ss) UTC,Instrument flags,absolute air pressure of the measurement (hPa),sample flow rate (lpm),inlet stack bypass flow (lpm),air temperature of the measurement (°C),ambient temperature measured by the external sensor (°C),aerosol sample conditioner tube jacket temperature (°C),OPC LED temperature (°C),internal box temperature (°C),relative humidity of the measurement (%),span deviation,mass concentration of particles derived from Lorenz-Mie calculation of OPC scattering (μg/m³),mass concentration of particles derived from Lorenz-Mie calculation of OPC scattering (μg/m³),mass concentration of particles derived from Lorenz-Mie calculation of OPC scattering (μg/m³)
DateTimeUTC,F1_M11,P_M11,Q1_M11,Q2_M11,T1_M11,T2_M11,T3_M11,T4_M11,T5_M11,U1_M11,ZSPAN_M11,X2_M11,X0_M11,X1_M11
2024-04-22 18:00:00,SystemResetWarning,0824.4,4.99,000.00,026.1,025.1,000.0,034.5,027.9,021.6,0000.0,0004.74,0012.53,0004.03
2024-04-22 18:01:00,SystemResetWarning,0824.3,4.99,000.00,026.1,025.2,000.0,034.5,027.9,021.8,0000.0,0004.86,0012.30,0004.14
2024-04-22 18:02:00,SystemResetWarning,0824.3,5.00,000.00,026.1,025.3,000.0,034.6,028.0,023.7,0000.0,0004.98,0012.43,0004.27
2024-04-22 18:03:00,SystemResetWarning,0824.3,5.01,000.00,026.2,025.4,000.0,034.6,028.0,024.4,0004.5,0005.67,0013.81,0004.95
2024-04-22 18:04:00,SystemResetWarning,0824.4,5.00,000.00,026.2,025.5,000.0,034.6,028.1,023.4,0005.0,0006.37,0014.82,0005.59
2024-04-22 18:05:00,SystemResetWarning,0824.4,5.00,000.00,026.3,025.5,000.0,034.6,028.1,020.1,0004.8,0006.84,0015.20,0006.05
2024-04-22 18:06:00,SystemResetWarning,0824.4,5.00,000.00,026.3,025.6,000.0,034.6,028.2,019.8,0004.8,0007.05,0015.40,0006.21
2024-04-22 18:07:00,SystemResetWarning,0824.4,5.00,000.00,026.3,025.6,000.0,034.6,028.2,022.1,0004.5,0007.16,0015.13,0006.33
2024-04-22 18:08:00,SystemResetWarning,0824.4,5.00,000.00,026.4,025.7,000.0,034.6,028.2,022.3,0004.4,0007.48,0015.46,0006.60
2024-04-22 18:09:00,SystemResetWarning,0824.3,4.99,000.00,026.4,025.3,000.0,034.7,027.9,021.8,0004.2,0007.84,0015.91,0006.91
2024-04-22 18:10:00,SystemResetWarning,0824.3,5.00,000.00,026.0,023.4,000.0,034.7,026.8,023.1,0004.3,0008.18,0016.00,0007.20
2024-04-22 18:11:00,SystemResetWarning,0824.2,5.01,000.00,025.6,022.3,000.0,034.7,026.1,024.2,0003.9,0008.40,0016.29,0007.44
2024-04-22 18:12:00,SystemResetWarning,0824.2,5.00,000.00,025.4,022.6,000.0,034.6,026.2,024.8,0003.7,0008.63,0016.36,0007.65
2024-04-22 18:13:00,SystemResetWarning,0824.2,4.99,000.00,025.4,023.0,000.0,034.4,026.5,025.6,0003.1,0008.88,0016.50,0007.84
2024-04-22 18:14:00,SystemResetWarning,0824.2,4.99,000.00,025.4,023.3,000.0,034.3,026.8,024.2,0002.2,0008.56,0015.88,0007.50
2024-04-22 18:15:00,SystemResetWarning,0824.2,5.02,000.00,025.4,023.6,000.0,034.2,027.0,023.9,0001.6,0008.14,0015.17,0007.12
2024-04-22 18:16:00,SystemResetWarning,0824.2,5.00,000.00,025.5,023.9,000.0,034.2,027.1,023.9,0001.4,0007.87,0015.41,0006.89
2024-04-22 18:17:00,SystemResetWarning,0824.2,4.99,000.00,025.5,024.2,000.0,034.1,027.3,023.0,0001.3,0007.88,0015.14,0006.92
2024-04-22 18:18:00,SystemResetWarning,0824.1,4.99,000.00,025.6,024.4,000.0,034.1,027.4,022.6,0001.8,0008.06,0016.07,0007.09
2024-04-22 18:19:00,SystemResetWarning,0824.2,5.01,000.00,025.6,024.6,000.0,034.1,027.5,023.3,0001.8,0008.12,0016.55,0007.16
2024-04-22 18:20:00,SystemResetWarning,0824.1,5.01,000.00,025.7,024.8,000.0,034.1,027.6,023.2,0002.1,0008.14,0017.03,0007.17
2024-04-22 18:21:00,SystemResetWarning,0824.2,5.01,000.00,025.7,024.9,000.0,034.1,027.6,023.3,0002.4,0008.13,0017.88,0007.15
2024-04-22 18:22:00,SystemResetWarning,0824.2,4.99,000.00,025.8,025.0,000.0,034.1,027.7,023.3,0002.9,0008.09,0018.14,0007.09
2024-04-22 18:23:00,SystemResetWarning,0824.3,5.00,000.00,025.8,025.1,000.0,034.1,027.7,022.7,0002.7,0008.01,0017.95,0007.01
2024-04-22 18:24:00,SystemResetWarning,0824.4,5.00,000.00,025.9,025.2,000.0,034.2,027.8,023.3,0003.6,0007.89,0018.25,0006.90
2024-04-22 18:25:00,SystemResetWarning,0824.3,5.00,000.00,026.0,025.3,000.0,034.2,027.9,021.7,0003.5,0007.72,0017.87,0006.78
2024-04-22 18:26:00,SystemResetWarning,0824.4,5.00,000.00,026.0,025.4,000.0,034.2,027.9,021.9,0003.4,0007.63,0017.88,0006.69
2024-04-22 18:27:00,SystemResetWarning,0824.4,5.01,000.00,026.0,025.4,000.0,034.2,028.0,021.3,0003.4,0007.61,0017.72,0006.62
2024-04-22 18:28:00,SystemResetWarning,0824.4,5.00,000.00,026.1,025.5,000.0,034.3,028.0,020.8,0003.9,0007.55,0017.55,0006.57
2024-04-22 18:29:00,SystemResetWarning,0824.4,5.00,000.00,026.1,025.4,000.0,034.3,027.9,021.2,0004.0,0007.50,0017.59,0006.50
2024-04-22 18:30:00,SystemResetWarning,0824.3,4.99,000.00,025.9,023.6,000.0,034.4,026.9,022.0,0003.9,0007.42,0017.88,0006.41
2024-04-22 18:31:00,SystemResetWarning,0824.1,5.01,000.00,025.4,022.0,000.0,034.3,026.0,021.8,0004.1,0007.27,0017.15,0006.29
2024-04-22 18:32:00,SystemResetWarning,0824.2,5.01,000.00,025.2,022.2,000.0,034.3,025.9,022.3,0004.4,0007.24,0015.83,0006.29
2024-04-22 18:33:00,SystemResetWarning,0824.1,5.00,000.00,025.1,022.6,000.0,034.1,026.2,022.3,0004.4,0007.24,0015.66,0006.29
2024-04-22 18:34:00,SystemResetWarning,0824.2,4.99,000.00,025.1,023.0,000.0,034.0,026.5,022.8,0004.9,0007.27,0015.69,0006.31
2024-04-22 18:35:00,SystemResetWarning,0824.1,5.00,000.00,025.2,023.3,000.0,033.9,026.7,023.7,0004.5,0007.32,0015.22,0006.34
2024-04-22 18:36:00,SystemResetWarning,0824.1,5.01,000.00,025.2,023.6,000.0,033.8,026.9,023.9,0004.5,0007.44,0015.07,0006.46
2024-04-22 18:37:00,SystemResetWarning,0824.2,5.01,000.00,025.3,023.9,000.0,033.8,027.0,023.2,0004.2,0007.57,0015.63,0006.56
2024-04-22 18:38:00,SystemResetWarning,0824.2,5.00,000.00,025.3,024.2,000.0,033.8,027.1,022.7,0004.4,0007.64,0015.79,0006.63
2024-04-22 18:39:00,SystemResetWarning,0824.1,4.99,000.00,025.4,024.4,000.0,033.8,027.2,022.5,0004.0,0007.70,0016.53,0006.68
2024-04-22 18:40:00,SystemResetWarning,0824.1,5.00,000.00,025.5,024.5,000.0,033.8,027.3,022.7,0003.6,0007.75,0016.31,0006.72
2024-04-22 18:41:00,SystemResetWarning,0824.1,4.99,000.00,025.5,024.7,000.0,033.8,027.4,023.1,0003.7,0007.77,0015.52,0006.75
2024-04-22 18:42:00,SystemResetWarning,0824.2,5.00,000.00,025.6,024.8,000.0,033.8,027.5,022.2,0003.5,0007.79,0015.60,0006.79
2024-04-22 18:43:00,SystemResetWarning,0824.3,5.00,000.00,025.6,025.0,000.0,033.9,027.6,022.3,0003.2,0007.77,0016.08,0006.81
2024-04-22 18:44:00,SystemResetWarning,0824.3,5.00,000.00,025.7,025.1,000.0,033.9,027.6,022.4,0003.0,0007.80,0016.51,0006.84
2024-04-22 18:45:00,SystemResetWarning,0824.3,5.01,000.00,025.8,025.2,000.0,033.9,027.7,021.8,0002.5,0007.81,0016.81,0006.85
2024-04-22 18:46:00,SystemResetWarning,0824.2,5.00,000.00,025.8,025.3,000.0,034.0,027.8,021.1,0002.7,0007.79,0017.27,0006.87
2024-04-22 18:47:00,SystemResetWarning,0824.1,5.00,000.00,025.9,025.4,000.0,034.0,027.8,020.6,0002.8,0007.75,0017.22,0006.81
2024-04-22 18:48:00,SystemResetWarning,0824.1,5.00,000.00,025.9,024.8,000.0,034.1,027.4,020.6,0002.9,0007.64,0016.64,0006.75
2024-04-22 18:49:00,SystemResetWarning,0824.0,4.99,000.00,025.5,022.7,000.0,034.1,026.2,021.4,0003.1,0007.56,0015.99,0006.71
2024-04-22 18:50:00,SystemResetWarning,0824.0,5.01,000.00,025.1,021.8,000.0,034.1,025.5,021.5,0002.9,0007.51,0015.04,0006.66
2024-04-22 18:51:00,SystemResetWarning,0824.1,5.00,000.00,024.9,022.1,000.0,033.9,025.7,021.9,0002.6,0007.45,0014.45,0006.63
2024-04-22 18:52:00,SystemResetWarning,0824.2,4.98,000.00,024.9,022.5,000.0,033.8,026.0,021.8,0002.5,0007.42,0014.15,0006.63
2024-04-22 18:53:00,SystemResetWarning,0824.2,5.01,000.00,024.9,022.9,000.0,033.7,026.3,021.8,0002.6,0007.42,0013.97,0006.62
2024-04-22 18:54:00,SystemResetWarning,0824.1,5.01,000.00,025.0,023.2,000.0,033.6,026.6,021.8,0003.0,0007.37,0013.51,0006.59
2024-04-22 18:55:00,SystemResetWarning,0824.1,5.00,000.00,025.0,023.5,000.0,033.6,026.7,021.4,0003.6,0007.28,0013.35,0006.55
2024-04-22 18:56:00,SystemResetWarning,0824.2,5.00,000.00,025.1,023.8,000.0,033.6,026.9,021.2,0004.0,0007.27,0012.94,0006.56
2024-04-22 18:57:00,SystemResetWarning,0824.1,4.99,000.00,025.1,024.1,000.0,033.6,027.0,021.4,0003.7,0007.26,0012.40,0006.54
2024-04-22 18:58:00,SystemResetWarning,0824.2,4.99,000.00,025.2,024.3,000.0,033.6,027.1,020.8,0004.1,0007.22,0012.36,0006.50
2024-04-22 18:59:00,SystemResetWarning,0824.2,5.00,000.00,025.3,024.4,000.0,033.6,027.2,021.0,0004.5,0007.21,0012.72,0006.46
